Location: Fort Frances
(48.6170°N, 93.4170°W)
Time: 18:01:03
(UTC-05:00)

Daily predictions for brighter satellites

Satellite Brightness Start Highest point End
(mag) Time Altitude Azimuth Time Altitude Azimuth Time Altitude Azimuth
Cosmos 1697 Rocket 3.2 20:44:10 10° SW 20:49:48 69° WNW 20:55:27 10° NNE
Cosmos 1869 3.6 20:48:00 10° SSE 20:51:47 47° E 20:55:35 10° NNE
USA 267 3.4 20:45:51 10° NE 20:52:26 89° NW 20:59:00 10° WSW
Cosmos 1892 4.0 20:49:10 10° NNW 20:52:48 44° W 20:56:25 10° SSW
Spot 2 Rocket 4.1 20:48:20 10° S 20:53:23 62° WSW 20:58:27 10° NNW
GRACE-1 3.9 20:50:41 10° N 20:53:27 81° W 20:56:11 10° S
GRACE-2 3.9 20:51:04 10° N 20:53:50 81° W 20:56:34 10° S
Resurs 01 Rocket 2.6 20:50:58 10° S 20:55:18 51° W 20:59:41 10° NNW
Cosmos 1400 Rocket 4.4 20:52:02 10° NNW 20:55:38 36° W 20:59:15 10° SSW
H-2A R/B 3.9 20:54:24 10° E 20:56:54 14° NE 20:59:23 10° NNE
SJ-11-01 4.4 20:53:18 10° SSE 20:57:54 59° ENE 21:02:30 10° N
CZ-4B DEB 2.8 20:55:38 10° SSE 20:58:38 56° ENE 21:01:38 10° N
Meteor 1-29 3.6 20:56:21 10° NNE 20:59:37 36° E 21:02:50 10° SSE
YAOGAN 6 3.5 20:57:29 10° SE 21:00:45 31° ENE 21:04:00 10° N
Cosmos 2263 Rocket 2.4 20:57:15 10° NNW 21:02:44 56° ENE 21:08:12 10° SE
Cosmos 220 Rocket 4.2 21:03:22 10° NNW 21:07:51 82° WSW 21:12:17 10° SSE
SPOT 5 4.1 21:04:20 10° ESE 21:08:12 25° ENE 21:11:56 10° N
Cosmos 1315 Rocket 3.9 21:05:22 10° NNW 21:09:21 49° W 21:13:14 10° S
Cosmos 2142 Rocket 4.4 21:04:40 10° S 21:10:45 73° E 21:16:55 10° NNE
BREEZE-M DEB (TANK) 4.1 21:06:46 10° W 21:11:16 73° S 21:29:42 10° ESE
Cosmos 2322 Rocket 2.5 21:06:18 10° S 21:11:36 45° ESE 21:16:57 10° NE
Envisat 3.0 21:08:10 10° SSE 21:13:15 90° SW 21:18:23 10° NNW
Cosmos 1302 Rocket 4.1 21:09:14 10° SSW 21:14:26 82° WNW 21:19:40 10° NNE
Cosmos 1933 4.0 21:12:45 10° SSE 21:16:25 34° E 21:20:06 10° NNE
BREEZE-M DEB (TANK) 3.5 21:18:32 10° WSW 21:21:44 64° SSE 21:30:42 10° E
Cosmos 2360 Rocket 3.3 21:17:55 10° SSE 21:22:16 23° ESE 21:26:39 10° NE
Cosmos 1825 2.3 21:18:32 10° NNW 21:22:21 80° W 21:26:09 10° S
Cosmos 1980 Rocket 2.8 21:17:11 10° SW 21:22:49 63° WNW 21:28:30 10° NNE
Cosmos 2026 Rocket 4.1 21:19:15 10° N 21:25:33 82° W 21:31:42 10° S
Cosmos 1908 Rocket 4.2 21:21:37 10° N 21:25:40 37° ENE 21:28:49 15° SE
H-2A R/B 4.2 21:24:18 10° E 21:26:24 14° NE 21:28:32 10° NNE
USA 234 3.7 21:22:57 10° SE 21:29:20 54° SW 21:35:45 10° WNW
NOAA 11 4.5 21:28:03 13° SE 21:32:51 53° ENE 21:38:11 10° N
Cosmos 1862 3.4 21:32:01 10° NNW 21:36:04 82° W 21:40:05 10° S
Helios 1B rocket 2.8 21:34:23 10° N 21:38:28 66° WNW 21:42:31 10° SSW
SL-16 R/B 2.1 21:33:37 10° SSW 21:39:15 71° ESE 21:44:56 10° NNE
USA 186 4.4 21:37:26 10° SW 21:39:18 16° W 21:41:16 10° NW
Cosmos 1782 Rocket 4.5 21:35:45 10° N 21:39:40 31° ENE 21:41:59 19° ESE
Lacrosse 4 Rocket 2.5 21:36:58 10° NW 21:41:03 43° WSW 21:45:08 10° S
Okean 2 Rocket 4.3 21:39:00 10° NNE 21:42:52 27° ENE 21:44:59 19° ESE
ATLAS 5 CENTAUR R/B 2.4 21:37:02 10° NW 21:42:55 81° NE 21:47:45 18° SE
SPOT 1/Viking Rocket 4.3 21:40:21 18° ESE 21:43:47 38° ENE 21:48:34 10° N
Cosmos 1733 Rocket 3.5 21:42:04 10° NNW 21:46:29 64° W 21:50:53 10° S
MetOp-B 4.2 21:42:09 16° SSE 21:46:29 65° ENE 21:51:48 10° N
ERS-1 Rocket 3.0 21:42:09 12° SSE 21:46:55 89° WSW 21:51:58 10° NNW
Cosmos 1939 Rocket 3.9 21:45:29 10° S 21:49:22 43° W 21:53:13 10° NNW
Intercosmos 25 Rocket 3.8 21:46:29 10° SSW 21:49:41 59° WNW 21:53:59 10° N
Cosmos 1655 Rocket 4.4 21:46:19 10° NNW 21:52:39 66° W 21:58:56 10° S
Cosmos 2278 Rocket 3.9 21:51:59 10° N 21:56:16 21° NE 22:00:07 11° E
ARGOS 3.3 21:52:58 20° SE 21:56:42 62° ENE 22:02:01 10° N
Cosmos 1862 Rocket 3.7 21:52:15 10° SSW 21:56:44 81° W 22:01:15 10° N
Cosmos 1408 4.5 21:54:00 10° NNW 21:57:15 29° W 22:00:28 10° SSW
SeaSat 1 2.4 21:57:02 22° SE 22:00:14 79° ENE 22:05:12 10° NNW
Meteor 1-26 Rocket 4.3 21:58:32 12° S 22:03:46 61° E 22:09:29 10° NNE
CENTAUR R/B 4.1 21:57:48 10° W 22:03:49 39° NNW 22:10:39 10° NE
Cosmos 1777 Rocket 4.5 21:58:46 10° NNW 22:03:55 48° ENE 22:06:40 25° ESE
Cosmos 1844 Rocket 3.3 22:00:44 10° NNW 22:06:03 43° NE 22:09:04 23° ESE
Cosmos 1992 Rocket 4.0 22:01:44 10° SSW 22:06:59 85° WNW 22:12:16 10° NNE
Abrixas rocket 2.0 22:04:04 10° WSW 22:07:22 77° S 22:08:38 34° E
Okean 1-7 3.6 22:07:56 29° SE 22:09:20 38° E 22:13:26 10° NNE
Terra 2.9 22:10:04 23° ESE 22:11:54 31° ENE 22:16:03 10° N
SL-08 RB Rocket 3.7 22:09:48 28° SSE 22:12:09 66° ENE 22:16:42 10° N
USA 229 DEB 4.1 22:06:25 10° S 22:12:37 39° ESE 22:18:58 10° NE
USA 229 4.1 22:06:31 10° S 22:12:43 39° ESE 22:19:02 10° NE
Cosmos 2266 Rocket 4.0 22:07:19 10° N 22:13:37 85° E 22:18:12 20° S
Atlas Centaur 2 4.2 22:09:06 10° SSW 22:13:58 18° SSE 22:14:12 18° SSE
YAOGAN 11 4.2 22:13:55 22° S 22:16:39 71° WSW 22:21:01 10° NNW
Cosmos 1703 Rocket 3.5 22:14:11 25° S 22:16:42 66° E 22:21:06 10° NNE
Cosmos 2221 Rocket 3.6 22:21:33 34° SSE 22:23:15 58° E 22:27:37 10° NNE
MOS 1-B Rocket 3.9 22:22:53 24° SSE 22:26:43 85° WSW 22:32:22 10° NNW
CZ-4C R/B 3.6 22:20:29 10° NW 22:26:53 43° NE 22:32:09 18° E
Cosmos 2219 Rocket 3.5 22:28:37 21° E 22:28:37 21° E 22:32:10 10° NE
Cosmos 1867 3.9 22:24:48 10° NW 22:30:10 60° WSW 22:32:45 30° S
CARTOSAT-1 4.1 22:32:34 37° ESE 22:33:33 43° ENE 22:37:40 10° N
Meteor 1-14 Rocket 4.4 22:29:13 10° NNW 22:34:49 69° W 22:38:21 24° S
USA 267 4.2 22:28:55 10° ENE 22:35:09 49° NNW 22:41:23 10° W
H-2A R/B 1.9 22:33:27 35° SSE 22:35:35 82° ENE 22:40:34 10° NNW
Cosmos 968 Rocket 4.3 22:39:13 10° NW 22:44:09 44° WSW 22:46:52 24° SSW
ASTEX 1 3.7 22:43:30 40° ESE 22:44:44 50° ENE 22:49:34 10° N
Cosmos 2237 4.2 22:42:03 29° S 22:44:57 59° ESE 22:50:35 10° NE
SPOT 5 3.6 22:43:24 24° SSW 22:46:04 48° W 22:50:35 10° NNW
Cosmos 2263 Rocket 3.8 22:41:44 10° NW 22:46:19 27° WSW 22:50:09 13° SSW
Cosmos 1536 4.5 22:44:53 10° NNE 22:48:02 21° ENE 22:48:02 21° ENE
Geosat 4.3 22:45:18 10° NE 22:50:07 44° ESE 22:50:29 44° SE
Meteor 1-25 Rocket 4.4 22:44:52 10° NNW 22:50:28 69° W 22:53:06 32° S
COSMOS 2428 2.8 22:52:07 41° SSE 22:53:44 54° ESE 22:59:18 10° NE
Cosmos 2322 Rocket 3.8 22:50:39 10° WSW 22:55:47 36° NW 23:00:58 10° NNE
ATLAS 3B R/B 4.4 22:52:06 10° NW 22:57:58 27° NNE 23:03:37 10° ENE
CZ-4C R/B 4.2 23:00:34 34° ENE 23:00:34 34° ENE 23:03:44 10° N
CZ-4B R/B 4.1 22:57:02 10° NNE 23:01:06 36° E 23:01:06 36° E
H-2A R/B 1.9 23:01:06 63° S 23:01:46 84° WSW 23:06:08 10° NNW
Cosmos 2360 Rocket 2.6 23:00:11 10° SW 23:05:47 64° WNW 23:11:28 10° NNE
Cosmos 1844 3.6 23:02:59 10° NNW 23:08:44 89° ENE 23:10:13 51° SSE
Cosmos 1606 2.7 23:14:01 75° N 23:14:01 75° N 23:17:32 10° N
Cosmos 2322 4.1 23:08:10 10° SW 23:13:51 65° WNW 23:19:32 10° NNE
CRYOSAT 2 4.3 23:13:51 60° ESE 23:14:27 67° E 23:19:19 10° N
SL-16 R/B 4.3 23:19:13 12° ENE 23:19:13 12° ENE 23:20:15 10° ENE
S3M 4.0 23:16:52 49° SE 23:18:18 62° E 23:24:26 10° NNE
IGS 5A 3.4 23:18:47 70° SW 23:18:57 71° WSW 23:23:08 10° NNW
Cosmos 1937 Rocket 4.4 23:15:57 10° N 23:20:52 37° ENE 23:21:55 34° E
Okean 2 Rocket 4.3 23:16:53 10° NNW 23:21:02 36° W 23:22:22 29° SW
Cosmos 1633 2.9 23:18:05 10° NNW 23:21:17 63° NW 23:21:17 63° NW
SL-16 R/B 4.4 23:19:15 10° W 23:23:55 26° NW 23:28:39 10° NNE
Meteor 2-6 Rocket 4.3 23:22:10 44° SSW 23:24:13 89° W 23:30:14 10° NNE
Cosmos 1300 Rocket 3.5 23:21:18 10° N 23:25:30 70° ENE 23:25:30 70° ENE
ATLAS 5 CENTAUR R/B 3.9 23:22:28 10° WNW 23:27:13 25° WSW 23:29:19 21° SW
Cosmos 1782 3.5 23:29:11 46° W 23:29:38 49° WNW 23:33:34 10° N
Cosmos 2333 Rocket 2.4 23:34:09 53° ESE 23:34:09 53° ESE 23:39:46 10° NE
Cosmos 2333 4.2 23:33:39 43° SSW 23:35:40 86° WNW 23:41:30 10° NNE
SeaSat 1 4.4 23:36:49 16° SW 23:38:16 18° WSW 23:41:34 10° WNW
Cosmos 1898 Rocket 3.5 23:34:27 10° NNW 23:39:39 68° ENE 23:40:05 64° E
Cosmos 2237 Rocket 2.7 23:41:33 44° E 23:41:33 44° E 23:46:24 10° NE
Cosmos 2278 Rocket 2.0 23:35:28 10° NNW 23:41:11 89° E 23:41:58 68° SSE
Timation 1 Rocket 4.3 23:39:09 10° NNW 23:45:11 76° ENE 23:46:14 60° ESE
deb Chang Zheng 4 4.2 23:43:17 10° N 23:47:35 53° WNW 23:48:10 49° W
Cosmos 1745 Rocket 4.0 23:42:19 10° NNW 23:48:39 75° W 23:50:11 53° SSW
Terra 2.8 23:48:57 36° WSW 23:49:33 37° W 23:53:59 10° NNW
Cosmos 1844 Rocket 3.6 23:44:49 10° NW 23:49:52 36° WSW 23:50:44 34° SW
Cosmos 1346 Rocket 3.4 23:51:31 54° NNW 23:51:31 54° NNW 23:54:45 10° N
SL-24 DEB 4.4 23:52:36 66° NE 23:52:36 66° NE 23:56:55 10° N
Spot 4 4.0 23:52:16 61° WSW 23:52:24 61° WSW 23:57:09 10° NNW
Cosmos 1378 Rocket 4.1 23:53:54 49° NE 23:53:54 49° NE 23:57:25 10° NNE
Meteor 1-5 Rocket 4.1 23:47:50 10° N 23:53:28 81° ENE 23:54:04 71° SE
